TimeCDT,TemperatureF,Dew PointF,Humidity,Sea Level PressureIn,VisibilityMPH,Wind Direction,Wind SpeedMPH,Gust SpeedMPH,PrecipitationIn,Events,Conditions,WindDirDegrees,DateUTC
12:56 AM,41.0,37.9,89,29.27,-9999.0,NW,24.2,34.5,0.01,,Unknown,320,2012-10-18 05:56:00
1:56 AM,41.0,37.9,89,29.26,-9999.0,NW,24.2,33.4,0.05,,Unknown,320,2012-10-18 06:56:00
2:56 AM,43.0,39.9,89,29.24,-9999.0,NW,23.0,34.5,0.09,,Unknown,320,2012-10-18 07:56:00
3:56 AM,43.0,39.9,89,29.22,-9999.0,NNW,27.6,35.7,0.08,,Unknown,330,2012-10-18 08:56:00
4:56 AM,43.0,39.9,89,29.22,-9999.0,NNW,27.6,40.3,0.11,,Unknown,330,2012-10-18 09:56:00
5:56 AM,43.0,39.9,89,29.22,-9999.0,NNW,24.2,40.3,0.08,,Unknown,330,2012-10-18 10:56:00
6:56 AM,43.0,39.9,89,29.21,-9999.0,NNW,28.8,40.3,0.05,,Unknown,330,2012-10-18 11:56:00
7:56 AM,42.1,41.0,96,29.21,-9999.0,NNW,27.6,36.8,0.04,,Unknown,330,2012-10-18 12:56:00
8:56 AM,43.0,42.1,97,29.21,-9999.0,NNW,25.3,32.2,0.02,,Unknown,340,2012-10-18 13:56:00
9:56 AM,44.1,44.1,100,29.23,-9999.0,NNW,21.9,29.9,N/A,,Unknown,340,2012-10-18 14:56:00
10:56 AM,46.9,46.9,100,29.25,-9999.0,North,27.6,35.7,0.02,,Unknown,360,2012-10-18 15:56:00
11:56 AM,46.0,44.1,93,29.31,-9999.0,North,29.9,39.1,N/A,,Unknown,10,2012-10-18 16:56:00
12:56 PM,46.0,44.1,93,29.36,-9999.0,North,28.8,35.7,N/A,,Unknown,10,2012-10-18 17:56:00
1:56 PM,46.9,45.0,93,29.39,-9999.0,North,17.3,-,0.02,,Unknown,360,2012-10-18 18:56:00
2:56 PM,46.9,46.0,97,29.40,-9999.0,North,24.2,35.7,0.09,,Unknown,350,2012-10-18 19:56:00
3:56 PM,46.0,44.1,93,29.42,-9999.0,NNW,31.1,44.9,0.07,,Unknown,340,2012-10-18 20:56:00
4:56 PM,45.0,42.1,90,29.44,-9999.0,NNW,33.4,52.9,0.08,,Unknown,340,2012-10-18 21:56:00
5:56 PM,44.1,42.1,93,29.47,-9999.0,North,35.7,46.0,0.08,,Unknown,350,2012-10-18 22:56:00
6:56 PM,43.0,41.0,93,29.49,-9999.0,North,35.7,48.3,0.05,,Unknown,350,2012-10-18 23:56:00
7:56 PM,43.0,41.0,93,29.51,-9999.0,North,29.9,42.6,0.04,,Unknown,350,2012-10-19 00:56:00
8:56 PM,42.1,41.0,96,29.53,-9999.0,North,33.4,44.9,0.02,,Unknown,350,2012-10-19 01:56:00
9:56 PM,42.1,41.0,96,29.55,-9999.0,North,29.9,41.4,0.04,,Unknown,350,2012-10-19 02:56:00
10:56 PM,42.1,39.9,92,29.56,-9999.0,North,33.4,42.6,0.03,,Unknown,350,2012-10-19 03:56:00
11:56 PM,41.0,39.9,96,29.58,-9999.0,North,32.2,41.4,0.01,,Unknown,350,2012-10-19 04:56:00